Torna al catalogo

STARLINK-30140

AttivoComunicazioniVLEO
NORAD 57458·PAYLOAD·🇺🇸 United States

Lanciato Jul 28, 2023 da Cape Canaveral Space Force Station

Loading…

Prossimi Passaggi (prossime 24 ore)

TLE

AggiornatoSource: CelesTrak SupGP

Epoca: Sep 14, 2026, 13:44 UTC

1 57458C 23107B   26257.57270833 -.00037398  00000+0 -13550-2 0  2573
2 57458  43.0020 352.6929 0001298 270.5755 161.5447 15.27587579    12

Traccia STARLINK-30140 in tempo reale con AllMySat

Download on the App Store